Location: Voyageurs National Park
(48.5020°N, 92.9292°W)
Time: 11:33:17
(UTC-05:00)

PCSat - Visible Passes

Search period start: 20 April 2018 00:00
Search period end: 30 April 2018 00:00
Orbit: 785 x 795 km, 67.1° (Epoch: 19 April)

Date Brightness Start Highest point End Pass type
(mag) Time Alt. Az. Time Alt. Az. Time Alt. Az.
20 Apr 10.0 21:43:21 10° NNW 21:48:40 51° NE 21:51:49 23° ESE visible
20 Apr 10.7 23:27:06 10° NW 23:31:51 31° WSW 23:32:32 30° SW visible
21 Apr 10.3 21:12:30 10° NNW 21:17:38 40° NE 21:21:53 14° ESE visible
21 Apr 10.4 22:55:59 10° NW 23:01:04 42° WSW 23:02:37 34° SSW visible
22 Apr 10.6 20:41:39 10° NNW 20:46:33 33° NE 20:51:26 10° ESE visible
22 Apr 10.0 22:24:55 10° NW 22:30:14 55° WSW 22:32:43 30° S visible
23 Apr 9.7 21:53:55 10° NW 21:59:21 73° WSW 22:02:52 22° SSE visible
23 Apr 11.9 23:39:44 10° W 23:41:47 12° WSW 23:43:36 10° WSW visible
24 Apr 9.6 21:22:58 10° NW 21:28:27 87° NE 21:33:04 15° SE visible
24 Apr 11.7 23:07:45 10° WNW 23:11:08 17° WSW 23:13:48 12° SW visible
25 Apr 9.7 20:52:03 10° NNW 20:57:30 68° NE 21:02:54 10° SE visible
25 Apr 11.4 22:36:16 10° WNW 22:40:24 23° WSW 22:44:03 12° SSW visible
26 Apr 11.1 22:04:59 10° NW 22:09:40 30° WSW 22:14:19 10° S visible
27 Apr 10.7 21:33:50 10° NW 21:38:53 40° WSW 21:43:53 10° S visible
28 Apr 10.3 21:02:46 10° NW 21:08:04 53° WSW 21:13:18 10° SSE visible
29 Apr 12.2 22:17:50 10° W 22:19:35 11° WSW 22:21:19 10° WSW visible
